Regional Weather Roundup
Issued by NWS

Home | Current Version | Previous Version | Graphics & Text | Print | Product List | Glossary On
Versions: 1 2 3 4 5 6 7 8 9 10 11 12 13 14 15 16 17 18 19 20 21 22 23 24 25 26 27
000
ASUS43 KDMX 231907
RWRIA

WEATHER ROUNDUP FOR IOWA
NATIONAL WEATHER SERVICE DES MOINES IA
200 PM CDT WED APR 23 2014

NOTE: "FAIR" INDICATES FEW OR NO CLOUDS BELOW 12,000 FEET WITH NO
SIGNIFICANT WEATHER AND/OR OBSTRUCTIONS TO VISIBILITY.

* - THESE STATIONS ARE NOT NWS STATIONS...THUS NOT UNDER NWS
QUALITY CONTROL.  THEY ALSO DO NOT REPORT WEATHER SUCH
AS PRECIPITATION OR FOG.

IAZ001>003-012>014-020>022-031>034-043>046-232000-
   NORTHWEST IOWA

CITY           SKY/WX    TMP DP  RH WIND       PRES   REMARKS
CARROLL *      PTSUNNY   48  43  81 SE31      29.83F
CHEROKEE *     PTSUNNY   54  41  62 SE25G35   29.79F
DENISON *      PTSUNNY   52  43  71 SE28G40   29.76F
LE MARS *      SUNNY     59  41  51 SE29G44   29.73F
ORANGE CITY *  SUNNY     59  39  47 SE24G33   29.76S
SHELDON *      CLOUDY    52  39  62 SE29G39   29.78F
SIOUX CITY     LGT RAIN  62  41  46 S32G46    29.70F
SPENCER        CLOUDY    49  37  63 SE30G40   29.85R
STORM LAKE *   SUNNY     52  41  66 SE37G47   29.78F
$$

IAZ055>058-069>071-079>083-090>094-232000-
   SOUTHWEST IOWA

CITY           SKY/WX    TMP DP  RH WIND       PRES   REMARKS
ATLANTIC *     LGT RAIN  50  41  71 SE18G30   29.80F
AUDUBON *      DRIZZLE   46  39  76 SE20G28   29.85F
CLARINDA *     PTSUNNY   55  41  58 SE17      29.89R
COUNCIL BLFS * PTSUNNY   50  45  81 SE25G35   29.75F
CRESTON *      CLOUDY    48  41  76 SE21G26   29.90F
HARLAN  *      CLOUDY    48  43  81 SE21G30   29.83F
LAMONI         CLOUDY    52  40  63 E12G22    29.92F
RED OAK *      PTSUNNY   54  43  66 SE18G35   29.83F
SHENANDOAH *   CLOUDY    55  43  62 SE25G32   29.83F
$$

IAZ047>049-059>061-072>074-084-232000-
   CENTRAL IOWA

CITY           SKY/WX    TMP DP  RH WIND       PRES   REMARKS
AMES           LGT RAIN  45  39  79 SE16      29.96F
ANKENY *       CLOUDY    46  41  81 SE15G23   29.95F
CHARITON *     CLOUDY    48  41  76 SE13G20   29.97F
DES MOINES     LGT RAIN  47  40  76 SE10G22   29.98F
GRINNELL*      RAIN      46  39  76 SE9       30.05R
KNOXVILLE *    LGT RAIN  46  39  76 E12       29.98F
MARSHALLTOWN   LGT RAIN  47  37  68 SE15      30.03R
NEWTON *       CLOUDY    45  39  81 SE18G25   30.01F HAZE
PELLA *        RAIN      46  39  76 E7        30.03F
PERRY *        LGT RAIN  46  41  81 SE23      29.90F
$$

IAZ004>006-015-016-023>025-035-036-232000-
   NORTH CENTRAL IOWA

CITY           SKY/WX    TMP DP  RH WIND       PRES   REMARKS
ALGONA *       CLOUDY    46  39  76 SE23G31   29.90F
CLARION *      PTSUNNY   46  37  71 SE24G32   29.94F
ESTHERVILLE    CLOUDY    47  39  74 SE25G31   29.87F
FORT DODGE *   CLOUDY    45  37  76 SE16G26   29.91F
MASON CITY       N/A     48  33  56 SE20G29   30.00F
FOREST CITY *  CLOUDY    46  32  57 SE16G31   29.96F
IOWA FALLS *   LGT RAIN  46  37  71 SE18      30.00F
$$

IAZ007>011-017>019-026>030-037>042-050>054-066-232000-
   NORTHEAST IOWA

CITY           SKY/WX    TMP DP  RH WIND       PRES   REMARKS
CEDAR RAPIDS   CLOUDY    50  31  48 SE17      30.06F
CHARLES CITY * PTSUNNY   48  32  53 SE17G24   30.05F
CLINTON *      PTSUNNY   52  28  40 E12       30.14F
DECORAH *      SUNNY     48  28  46 E12G18    30.07F
DUBUQUE        CLOUDY    48  29  47 SE10      30.11F
MONTICELLO *   CLOUDY    48  28  46 E14       30.09F
OELWEIN *      MOSUNNY  N/A N/A N/A SE20      30.09R
WATERLOO       CLOUDY    50  30  46 SE15      30.06F
$$

IAZ064-065-067-068-078-232000-
   EAST CENTRAL IOWA

CITY           SKY/WX    TMP DP  RH WIND       PRES   REMARKS
DAVENPORT      PTSUNNY   55  29  36 SE13      30.10F
IOWA CITY      CLOUDY    52  31  44 SE16      30.08F
MT. PLEASANT * LGT RAIN  54  30  40 SE17      30.06F
MUSCATINE *    CLOUDY    55  30  38 SE9       30.07F
QUAD CITIES    PTSUNNY   57  28  33 SE10      30.09F
$$

IAZ062-063-075>077-085>089-095>099-232000-
   SOUTHEAST IOWA

CITY           SKY/WX    TMP DP  RH WIND       PRES   REMARKS
BURLINGTON     CLOUDY    55  30  38 SE12      30.05F
FAIRFIELD *    CLOUDY    52  32  46 SE16      30.05R
FORT MADISON * SUNNY     55  32  41 SE13      30.06F
KEOKUK *       MOSUNNY   57  34  41 SE15G21   30.04F
OSKALOOSA *    LGT RAIN  48  36  61 SE14      30.05S
CENTERVILLE *  LGT RAIN  48  41  76 E14       29.99F
OTTUMWA        LGT RAIN  49  35  58 SE12      30.04R
WASHINGTON *   MOSUNNY   54  32  43 SE18      30.05F
$$

ABBREVIATIONS USED IN REMARKS
   TC - TEMPERATURES IN CELSIUS
  WCI - WIND CHILL INDEX
   HX - HEAT INDEX
  VSB - VISIBILITY
$$




USA.gov is the U.S. government's official web portal to all federal, state and local government web resources and services.